TimeEDT,TemperatureF,Dew PointF,Humidity,Sea Level PressureIn,VisibilityMPH,Wind Direction,Wind SpeedMPH,Gust SpeedMPH,PrecipitationIn,Events,Conditions,WindDirDegrees,DateUTC
12:56 AM,73.9,68.0,82,30.07,7.0,West,8.1,-,N/A,,Clear,260,2013-08-27 04:56:00
1:56 AM,73.0,68.0,84,30.06,7.0,WSW,8.1,-,N/A,,Clear,250,2013-08-27 05:56:00
2:56 AM,71.1,66.9,87,30.05,6.0,WSW,6.9,-,N/A,,Clear,250,2013-08-27 06:56:00
3:56 AM,72.0,68.0,87,30.06,6.0,SW,8.1,-,N/A,,Clear,230,2013-08-27 07:56:00
4:56 AM,70.0,68.0,93,30.06,5.0,WSW,6.9,-,N/A,,Clear,240,2013-08-27 08:56:00
5:56 AM,71.1,69.1,93,30.04,5.0,SW,8.1,-,N/A,,Clear,230,2013-08-27 09:56:00
6:56 AM,71.1,69.1,93,30.05,4.0,SW,9.2,-,N/A,,Mostly Cloudy,230,2013-08-27 10:56:00
7:19 AM,69.8,69.8,100,30.09,2.5,WSW,8.1,-,N/A,,Mostly Cloudy,240,2013-08-27 11:19:00
7:56 AM,72.0,70.0,93,30.06,2.0,WSW,6.9,-,N/A,,Mostly Cloudy,240,2013-08-27 11:56:00
8:46 AM,75.2,71.6,89,30.09,3.0,West,9.2,-,N/A,,Mostly Cloudy,260,2013-08-27 12:46:00
8:56 AM,75.0,71.1,87,30.06,3.0,WSW,9.2,-,N/A,,Mostly Cloudy,250,2013-08-27 12:56:00
9:56 AM,77.0,71.1,82,30.06,5.0,West,9.2,-,N/A,,Haze,260,2013-08-27 13:56:00
10:56 AM,80.1,71.1,74,30.05,6.0,West,5.8,-,N/A,,Haze,260,2013-08-27 14:56:00
11:56 AM,82.0,71.1,69,30.04,7.0,SW,6.9,-,N/A,,Mostly Cloudy,230,2013-08-27 15:56:00
12:56 PM,84.9,72.0,65,30.05,7.0,Variable,5.8,-,N/A,,Mostly Cloudy,0,2013-08-27 16:56:00
1:56 PM,86.0,73.0,65,30.03,7.0,WSW,8.1,-,N/A,,Mostly Cloudy,250,2013-08-27 17:56:00
2:56 PM,87.1,73.0,63,30.01,8.0,SW,9.2,-,N/A,,Mostly Cloudy,230,2013-08-27 18:56:00
3:56 PM,88.0,73.9,63,29.99,9.0,WSW,11.5,-,N/A,,Mostly Cloudy,240,2013-08-27 19:56:00
4:56 PM,88.0,73.0,61,29.98,10.0,WSW,9.2,-,N/A,,Mostly Cloudy,250,2013-08-27 20:56:00
5:56 PM,87.1,73.0,63,29.97,10.0,SW,9.2,-,N/A,,Mostly Cloudy,220,2013-08-27 21:56:00
6:56 PM,86.0,73.9,67,29.96,9.0,SW,9.2,-,N/A,,Mostly Cloudy,220,2013-08-27 22:56:00
7:56 PM,84.0,73.9,72,29.97,8.0,SW,8.1,-,N/A,,Mostly Cloudy,220,2013-08-27 23:56:00
8:56 PM,82.0,73.9,76,29.96,9.0,SSW,6.9,-,N/A,,Scattered Clouds,210,2013-08-28 00:56:00
9:56 PM,81.0,73.9,79,29.97,9.0,SW,9.2,-,N/A,,Clear,230,2013-08-28 01:56:00
10:56 PM,80.1,72.0,76,29.97,10.0,WSW,9.2,-,N/A,,Mostly Cloudy,240,2013-08-28 02:56:00
11:56 PM,79.0,71.1,77,29.96,10.0,WSW,10.4,-,N/A,,Overcast,250,2013-08-28 03:56:00